Regional Weather Roundup
Issued by NWS Kansas City/Pleasant Hill, MO

Home | Current Version | Previous Version | Text Only | Print | Product List | Glossary On
Versions: 1 2 3 4 5 6 7 8 9 10 11 12 13 14 15 16 17 18 19 20 21 22 23 24 25 26 27
000
ASUS43 KEAX 050710
RWREAX

WEATHER ROUNDUP FOR EASTERN KANSAS AND NORTHWEST MISSOURI
NATIONAL WEATHER SERVICE KANSAS CITY/PLEASANT HILL MO
200 AM CDT THU MAY 05 2016

KSZ040-057-103>105-MOZ028-029-037-043-050800-
...KANSAS CITY METROPOLITAN AREA...

CITY           SKY/WX    TMP DP  RH WIND       PRES   REMARKS
K.C. INTL      CLEAR     52  39  61 NW6       30.01S
K.C. DOWNTOWN  CLEAR     51  43  74 CALM      30.01R
LEES SUMMIT    CLEAR     54  38  54 W3        30.01S
OLATHE - IXD   CLEAR     50  39  66 W5        30.02F
OLATHE - OJC   CLEAR     50  39  66 W5        30.01F
LAWRENCE       CLEAR     43  40  89 NW7       30.02F

$$

MOZ001>008-011>017-020>025-030>033-038>040-044>046-053-054-050800-
...NORTHERN AND CENTRAL MISSOURI...

CITY           SKY/WX    TMP DP  RH WIND       PRES   REMARKS
ST. JOSEPH     CLEAR     43  41  93 N3        30.01S
MOSBY          SUNNY     45  43  93 CALM      30.01S
WARRENSBURG    CLEAR     48  41  76 W3        29.99F
WHITEMAN AFB   CLEAR     48  40  75 W5        29.97F
CLINTON        CLEAR     45  41  87 CALM      30.00S
SEDALIA        CLEAR     53  38  56 W8        29.98F
WARSAW         NOT AVBL
CHILLICOTHE      N/A     52  40  63 VRB3      29.99S
KIRKSVILLE     CLEAR     48  36  63 N7        29.96S

$$

MOZ041-047>049-056>058-063>065-088>090-097-050800-
...EASTERN AND SOUTHERN MISSOURI...

CITY           SKY/WX    TMP DP  RH WIND       PRES   REMARKS
ST. LOUIS INTL PTCLDY    50  38  63 W7        29.89F
SPIRIT OF STL  CLEAR     50  40  68 NW5       29.89F
COLUMBIA       CLEAR     49  38  65 NW7       29.94S
JEFFERSON CITY CLEAR     47  40  76 NW3       29.94F
ROLLA          CLEAR     50  36  58 W8        29.92F
OSAGE BEACH    CLEAR     45  34  65 W3        29.96F
SPRINGFIELD    CLEAR     47  38  71 CALM      29.99S
JOPLIN         PTCLDY    46  43  89 CALM      30.02S
WEST PLAINS    CLEAR     48  35  60 W5        29.97F

$$

IAZ060-094-KSZ022-034>040-054-083-096-NEZ052-066-093-050800-
...KANSAS...SOUTHEAST NEBRASKA AND IOWA...

CITY           SKY/WX    TMP DP  RH WIND       PRES   REMARKS
TOPEKA         CLEAR     48  43  82 CALM      30.03
MANHATTAN      CLEAR     45  40  82 CALM      30.05R
EMPORIA        CLEAR     51  41  68 NW5       30.04S
CHANUTE        PTCLDY    47  41  80 NW3       30.03S
WICHITA        CLEAR     50  41  71 NW5       30.05S
OMAHA          CLEAR     48  43  82 CALM      30.02S
LINCOLN        CLEAR     45  39  79 CALM      30.06S
FALLS CITY     CLEAR     46  40  79 W5        30.02
LAMONI         CLEAR     48  38  68 NW10      29.99R
DES MOINES     CLEAR     48  37  65 NW5       29.99S

$$





USA.gov is the U.S. government's official web portal to all federal, state and local government web resources and services.